GW7170 Weather Reports


time (UTC)temp
C
wind
direction
speed
KPH
gust
KPH
rain 1hr
cm
rain 24hr
cm
rain mn
cm
humidity
%
barometer
mb
20260502170117 17 300 6.4 9.7 0.00 0.00 0.00 27 1020.0
20260502164117 16 272 6.4 8.0 0.00 0.00 0.00 27 1020.0
20260502163117 17 297 4.8 6.4 0.00 0.00 0.00 27 1020.0
20260502162116 17 286 4.8 6.4 0.00 0.00 0.00 29 1020.0
20260502161116 17 284 8.0 12.9 0.00 0.00 0.00 29 1020.0
20260502160137 16 277 6.4 9.7 0.00 0.00 0.00 28 1020.0
20260502152117 16 281 8.0 11.3 0.00 0.00 0.00 29 1020.3
20260502151117 17 289 4.8 6.4 0.00 0.00 0.00 29 1020.0
20260502150116 16 276 4.8 6.4 0.00 0.00 0.00 30 1020.0
20260502140116 15 276 6.4 6.4 0.00 0.00 0.00 37 1021.0
20260502130115 10 277 14.5 14.5 0.00 0.00 0.00 55 1021.0
20260502123115 6 270 11.3 11.3 0.00 0.00 0.00 70 1021.0
20260502122136 4 225 3.2 3.2 0.00 0.00 0.00 76 1020.0
20260502121115 3 90 6.4 6.4 0.00 0.00 0.00 79 1020.0
20260502120115 2 180 3.2 3.2 0.00 0.00 0.00 82 1020.0
20260502115115 1 90 3.2 3.2 0.00 0.00 0.00 82 1020.0
20260502114115 1 0.0 0.0 0.00 0.00 0.00 83 1020.0
20260502113115 1 270 3.2 3.2 0.00 0.00 0.00 82 1020.0
20260502112116 0 0.0 0.0 0.00 0.00 0.00 82 1020.0
20260502111117 1 0.0 0.0 0.00 0.00 0.00 81 1020.0
20260502110137 1 0.0 0.0 0.00 0.00 0.00 81 1020.0
20260502105117 1 90 3.2 3.2 0.00 0.00 0.00 81 1020.0
20260502104116 1 154 4.8 4.8 0.00 0.00 0.00 79 1020.0
20260502103116 1 180 3.2 3.2 0.00 0.00 0.00 80 1020.0
20260502102117 1 180 3.2 3.2 0.00 0.00 0.00 79 1020.0
20260502101115 1 156 4.8 4.8 0.00 0.00 0.00 79 1020.0
20260502100116 1 180 3.2 3.2 0.00 0.00 0.00 78 1020.0
20260502091116 2 102 6.4 6.4 0.00 0.00 0.00 74 1020.0
20260502090117 2 103 6.4 6.4 0.00 0.00 0.00 74 1020.0
20260502071115 3 270 3.2 3.2 0.00 0.00 0.00 68 1020.0
20260502070116 3 270 3.2 3.2 0.00 0.00 0.00 68 1020.0
20260502065118 3 270 4.8 6.4 0.00 0.00 0.00 67 1020.0
20260502064115 3 270 8.0 8.0 0.00 0.00 0.00 67 1020.0
20260502063135 3 270 8.0 8.0 0.00 0.00 0.00 66 1020.0
20260502062115 4 270 8.0 9.7 0.00 0.00 0.00 66 1020.0
20260502061116 4 283 6.4 6.4 0.00 0.00 0.00 66 1020.0
20260502060117 4 270 6.4 6.4 0.00 0.00 0.00 66 1020.0
20260502055115 5 245 8.0 8.0 0.00 0.00 0.00 66 1020.0
20260502054115 5 272 8.0 9.7 0.00 0.00 0.00 65 1018.9
20260502053117 5 270 9.7 9.7 0.00 0.00 0.00 64 1018.9
20260502052115 5 270 8.0 8.0 0.00 0.00 0.00 63 1018.9
20260502051135 6 272 8.0 9.7 0.00 0.00 0.00 62 1018.9
20260502050115 6 272 9.7 9.7 0.00 0.00 0.00 62 1018.9
20260502045116 6 271 9.7 9.7 0.00 0.00 0.00 63 1018.9
20260502044156 6 272 9.7 9.7 0.00 0.00 0.00 62 1018.9
20260502043116 6 272 9.7 9.7 0.00 0.00 0.00 62 1018.9
20260502042117 6 272 9.7 11.3 0.00 0.00 0.00 61 1018.9
20260502041115 7 273 11.3 11.3 0.00 0.00 0.00 60 1018.9
20260502040122 7 274 9.7 9.7 0.00 0.00 0.00 60 1018.9
20260502035136 7 274 12.9 12.9 0.00 0.00 0.00 58 1018.9
20260502034116 8 275 12.9 12.9 0.00 0.00 0.00 57 1018.9
20260502033115 8 275 12.9 14.5 0.00 0.00 0.00 56 1018.9
20260502032116 8 275 12.9 12.9 0.00 0.00 0.00 56 1018.9
20260502031117 8 276 12.9 12.9 0.00 0.00 0.00 55 1018.9
20260502030115 8 274 12.9 12.9 0.00 0.00 0.00 54 1018.9
20260502025117 8 274 12.9 12.9 0.00 0.00 0.00 54 1018.9
20260502024115 9 276 12.9 14.5 0.00 0.00 0.00 53 1018.9
20260502023116 9 272 11.3 11.3 0.00 0.00 0.00 51 1017.9
20260502022115 9 272 9.7 11.3 0.00 0.00 0.00 51 1017.9
20260502021116 10 270 9.7 9.7 0.00 0.00 0.00 50 1017.9
20260502020115 10 270 9.7 9.7 0.00 0.00 0.00 49 1017.9
20260502015117 10 270 8.0 9.7 0.00 0.00 0.00 48 1017.9
20260502014116 10 262 9.7 9.7 0.00 0.00 0.00 48 1017.9
20260502013117 10 252 6.4 6.4 0.00 0.00 0.00 47 1017.9
20260502012117 10 255 6.4 8.0 0.00 0.00 0.00 45 1017.9
20260502011115 10 241 6.4 6.4 0.00 0.00 0.00 43 1017.9
20260502010120 11 229 4.8 4.8 0.00 0.00 0.00 41 1017.9
20260502005116 12 225 4.8 4.8 0.00 0.00 0.00 41 1016.9
20260502004117 13 215 3.2 3.2 0.00 0.00 0.00 37 1016.9
20260502003115 14 228 3.2 3.2 0.00 0.00 0.00 34 1016.9
20260502002116 17 270 0.0 3.2 0.00 0.00 0.00 29 1016.9
20260502001117 18 152 0.0 3.2 0.00 0.00 0.00 29 1016.9
20260502000115 18 188 0.0 3.2 0.00 0.00 0.00 29 1016.9
20260501235136 20 128 1.6 4.8 0.00 0.00 0.00 28 1016.9
20260501234115 15 202 1.6 4.8 0.00 0.00 0.00 35 1016.9
20260501233121 16 198 1.6 3.2 0.00 0.00 0.00 33 1016.9
20260501232115 14 209 1.6 3.2 0.00 0.00 0.00 36 1016.9
20260501231137 15 244 1.6 3.2 0.00 0.00 0.00 34 1016.9
20260501230235 15 204 1.6 3.2 0.00 0.00 0.00 34 1016.9
20260501225116 16 191 1.6 3.2 0.00 0.00 0.00 33 1016.9
20260501224117 15 99 1.6 4.8 0.00 0.00 0.00 34 1016.9
20260501223115 15 70 3.2 4.8 0.00 0.00 0.00 34 1016.9
20260501222116 15 0.0 0.0 0.00 0.00 0.00 33 1016.9
20260501221137 16 241 1.6 3.2 0.00 0.00 0.00 32 1016.9
20260501220117 15 120 1.6 3.2 0.00 0.00 0.00 34 1016.9
20260501215137 14 201 1.6 3.2 0.00 0.00 0.00 34 1016.9
20260501214117 15 117 1.6 3.2 0.00 0.00 0.00 33 1016.9
20260501213115 16 272 1.6 3.2 0.00 0.00 0.00 32 1016.9
20260501212116 17 360 1.6 3.2 0.00 0.00 0.00 29 1016.9
20260501211116 20 105 0.0 3.2 0.00 0.00 0.00 28 1016.9
20260501210201 17 92 1.6 3.2 0.00 0.00 0.00 31 1016.9
20260501205126 16 61 1.6 4.8 0.00 0.00 0.00 31 1016.9
20260501204136 16 67 4.8 14.5 0.00 0.00 0.00 32 1016.9
20260501203119 18 51 1.6 6.4 0.00 0.00 0.00 28 1016.9
20260501202116 19 319 0.0 1.6 0.00 0.00 0.00 29 1016.9
20260501201116 18 320 1.6 4.8 0.00 0.00 0.00 30 1016.9
20260501200136 18 127 3.2 4.8 0.00 0.00 0.00 31 1016.9
20260501195117 17 219 1.6 4.8 0.00 0.00 0.00 32 1016.9
20260501194121 17 54 3.2 9.7 0.00 0.00 0.00 30 1016.9
20260501193156 17 70 1.6 6.4 0.00 0.00 0.00 31 1016.9
20260501192116 17 35 1.6 6.4 0.00 0.00 0.00 30 1016.9
20260501191116 18 76 8.0 11.3 0.00 0.00 0.00 31 1016.9
20260501190117 16 245 1.6 3.2 0.00 0.00 0.00 35 1016.9
20260501185116 16 270 3.2 6.4 0.00 0.00 0.00 35 1016.9
20260501184117 16 279 1.6 4.8 0.00 0.00 0.00 34 1016.9
20260501183116 16 249 0.0 1.6 0.00 0.00 0.00 36 1016.9
20260501182117 16 264 3.2 6.4 0.00 0.00 0.00 36 1016.9
20260501181115 16 272 3.2 4.8 0.00 0.00 0.00 34 1016.9
20260501180116 17 108 1.6 4.8 0.00 0.00 0.00 35 1016.9
20260501175117 15 129 1.6 3.2 0.00 0.00 0.00 36 1016.9
20260501174116 15 192 1.6 3.2 0.00 0.00 0.00 39 1016.9
20260501173115 15 263 1.6 4.8 0.00 0.00 0.00 38 1016.9
20260501172116 16 90 1.6 3.2 0.00 0.00 0.00 37 1016.9